SIA214 YPPH-WSSS

Flight info

Callsign SIA214
Flight time N/A
Altitude 40000
Route AVNEX N752 PLB G579 REPOV REPOV2A
Aircraft A359/H-SDE2E3GHIJ3J4J5LM1ORWXY/LB1D1

Departure

Time 2026-04-27 02:55
Airport Perth International Airport (YPPH)

Arrival

Time N/A
Airport Singapore Changi Airport (WSSS)
Time Latitude Longitude Altitude Speed Heading
2026-04-27 02:42 -31.93985 115.97443 55 ft 0 kts 172°
2026-04-27 02:45 -31.93975 115.97442 48 ft 4 kts 166°
2026-04-27 02:46 -31.93954 115.97433 49 ft 4 kts 134°
2026-04-27 02:46 -31.93940 115.97409 47 ft 4 kts 122°
2026-04-27 02:46 -31.93931 115.97394 47 ft 1 kts 136°
2026-04-27 02:46 -31.93930 115.97392 47 ft 0 kts 136°
2026-04-27 02:50 -31.93933 115.97399 47 ft 3 kts 125°
2026-04-27 02:50 -31.93925 115.97418 49 ft 2 kts 33°
2026-04-27 02:50 -31.93911 115.97408 48 ft 6 kts 325°
2026-04-27 02:50 -31.93860 115.97366 50 ft 9 kts 325°
2026-04-27 02:51 -31.93804 115.97327 49 ft 10 kts 329°
2026-04-27 02:51 -31.93745 115.97285 51 ft 9 kts 329°
2026-04-27 02:51 -31.93692 115.97247 54 ft 9 kts 329°
2026-04-27 02:51 -31.93619 115.97196 51 ft 16 kts 329°
2026-04-27 02:52 -31.93507 115.97117 50 ft 20 kts 329°
2026-04-27 02:52 -31.93377 115.97049 53 ft 20 kts 359°
2026-04-27 02:52 -31.93240 115.97086 50 ft 20 kts 14°
2026-04-27 02:52 -31.93104 115.97126 52 ft 19 kts 14°
2026-04-27 02:53 -31.92978 115.97157 53 ft 17 kts 355°
2026-04-27 02:53 -31.92924 115.97054 55 ft 15 kts 283°
2026-04-27 02:53 -31.92899 115.96931 51 ft 15 kts 283°
2026-04-27 02:53 -31.92915 115.96833 51 ft 12 kts 207°
2026-04-27 02:54 -31.93024 115.96798 50 ft 29 kts 194°
2026-04-27 02:54 -31.93456 115.96673 52 ft 97 kts 194°
2026-04-27 02:54 -31.94302 115.96425 70 ft 151 kts 194°
2026-04-27 02:54 -31.95336 115.96118 648 ft 155 kts 194°
2026-04-27 02:55 -31.96412 115.95785 1220 ft 165 kts 194°
2026-04-27 02:55 -31.97554 115.95419 1713 ft 176 kts 194°
2026-04-27 02:55 -31.98816 115.95030 1833 ft 198 kts 194°
2026-04-27 02:55 -32.00224 115.94628 1969 ft 218 kts 193°
2026-04-27 02:56 -32.01701 115.94004 2179 ft 236 kts 214°
2026-04-27 02:56 -32.02681 115.92461 2472 ft 244 kts 257°
2026-04-27 02:56 -32.02721 115.90473 2843 ft 245 kts 285°
2026-04-27 02:56 -32.02357 115.88503 3531 ft 245 kts 288°
2026-04-27 02:57 -32.01994 115.86550 4191 ft 245 kts 287°
2026-04-27 02:57 -32.01660 115.84572 4792 ft 247 kts 285°
2026-04-27 02:57 -32.01456 115.83250 5206 ft 247 kts 284°
2026-04-27 02:57 -32.01079 115.80604 6045 ft 247 kts 284°
2026-04-27 02:58 -32.00807 115.78597 6653 ft 248 kts 284°
2026-04-27 02:58 -32.00543 115.76587 7244 ft 249 kts 284°
2026-04-27 02:58 -32.00277 115.74559 7850 ft 250 kts 284°
2026-04-27 02:58 -32.00017 115.72540 8462 ft 250 kts 283°
2026-04-27 02:59 -31.99763 115.70511 9100 ft 250 kts 283°
2026-04-27 02:59 -31.99515 115.68497 9694 ft 252 kts 283°
2026-04-27 02:59 -31.99339 115.67111 10093 ft 253 kts 284°
2026-04-27 02:59 -31.98857 115.64346 10484 ft 269 kts 287°
2026-04-27 03:00 -31.98577 115.62894 10622 ft 279 kts 287°
2026-04-27 03:00 -31.98133 115.60615 10892 ft 293 kts 287°
2026-04-27 03:00 -31.97673 115.58224 11200 ft 306 kts 286°
2026-04-27 03:00 -31.97208 115.55731 11521 ft 318 kts 285°
2026-04-27 03:01 -31.96706 115.53145 11822 ft 327 kts 288°
2026-04-27 03:01 -31.95879 115.50649 12173 ft 330 kts 297°
2026-04-27 03:01 -31.94836 115.48221 12566 ft 333 kts 298°
2026-04-27 03:01 -31.93753 115.45803 12946 ft 337 kts 298°
2026-04-27 03:02 -31.92578 115.43391 13334 ft 340 kts 304°
2026-04-27 03:02 -31.90971 115.41333 13718 ft 345 kts 320°
2026-04-27 03:02 -31.88860 115.39934 14086 ft 352 kts 335°
2026-04-27 03:02 -31.86537 115.38987 14438 ft 356 kts 337°
2026-04-27 03:03 -31.84216 115.37938 14809 ft 357 kts 335°
2026-04-27 03:03 -31.79595 115.35689 15554 ft 361 kts 334°
2026-04-27 03:03 -31.77311 115.34542 15930 ft 363 kts 333°
2026-04-27 03:04 -31.74978 115.33365 16301 ft 365 kts 333°
2026-04-27 03:04 -31.72634 115.32185 16673 ft 367 kts 333°
2026-04-27 03:04 -31.70276 115.31001 17068 ft 369 kts 333°
2026-04-27 03:04 -31.67903 115.29815 17459 ft 371 kts 333°
2026-04-27 03:05 -31.65519 115.28627 17844 ft 373 kts 333°
2026-04-27 03:05 -31.63125 115.27435 18230 ft 375 kts 333°
2026-04-27 03:05 -31.60717 115.26238 18571 ft 377 kts 333°
2026-04-27 03:05 -31.58294 115.25034 18909 ft 378 kts 334°
2026-04-27 03:06 -31.55871 115.23831 19236 ft 380 kts 334°
2026-04-27 03:06 -31.53454 115.22631 19567 ft 381 kts 334°
2026-04-27 03:06 -31.51008 115.21417 19889 ft 383 kts 334°
2026-04-27 03:06 -31.48546 115.20197 20207 ft 384 kts 334°
2026-04-27 03:07 -31.46082 115.18976 20519 ft 386 kts 334°
2026-04-27 03:07 -31.43598 115.17746 20827 ft 388 kts 334°
2026-04-27 03:07 -31.41108 115.16514 21128 ft 389 kts 334°
2026-04-27 03:07 -31.38612 115.15279 21434 ft 391 kts 334°
2026-04-27 03:08 -31.36098 115.14036 21735 ft 392 kts 334°
2026-04-27 03:08 -31.33578 115.12791 22024 ft 394 kts 335°
2026-04-27 03:08 -31.31074 115.11554 22330 ft 395 kts 335°
2026-04-27 03:08 -31.28544 115.10305 22622 ft 396 kts 335°
2026-04-27 03:09 -31.25997 115.09049 22916 ft 398 kts 335°
2026-04-27 03:09 -31.23442 115.07791 23220 ft 399 kts 335°
2026-04-27 03:09 -31.20842 115.06511 23520 ft 400 kts 335°
2026-04-27 03:09 -31.18310 115.05264 23766 ft 401 kts 335°
2026-04-27 03:10 -31.15728 115.03993 23987 ft 403 kts 335°
2026-04-27 03:10 -31.13144 115.02721 24199 ft 404 kts 335°
2026-04-27 03:10 -31.10541 115.01441 24428 ft 406 kts 335°
2026-04-27 03:10 -31.07934 115.00161 24647 ft 407 kts 335°
2026-04-27 03:11 -31.05322 114.98879 24856 ft 408 kts 335°
2026-04-27 03:11 -31.02698 114.97591 25076 ft 410 kts 335°
2026-04-27 03:11 -31.00062 114.96299 25296 ft 411 kts 335°
2026-04-27 03:11 -30.97424 114.95007 25512 ft 412 kts 335°
2026-04-27 03:12 -30.94775 114.93709 25730 ft 413 kts 335°
2026-04-27 03:12 -30.92116 114.92408 25945 ft 415 kts 335°
2026-04-27 03:12 -30.89450 114.91103 26158 ft 416 kts 335°
2026-04-27 03:12 -30.86805 114.89810 26384 ft 418 kts 335°
2026-04-27 03:13 -30.84116 114.88496 26608 ft 419 kts 335°
2026-04-27 03:13 -30.81420 114.87180 26835 ft 421 kts 335°
2026-04-27 03:13 -30.78710 114.85857 27065 ft 422 kts 335°
2026-04-27 03:13 -30.75998 114.84534 27298 ft 424 kts 335°
2026-04-27 03:14 -30.73265 114.83202 27531 ft 426 kts 335°
2026-04-27 03:14 -30.70529 114.81870 27769 ft 427 kts 335°
2026-04-27 03:14 -30.67786 114.80534 28022 ft 429 kts 335°
2026-04-27 03:14 -30.65027 114.79192 28261 ft 431 kts 335°
2026-04-27 03:15 -30.62253 114.77843 28509 ft 432 kts 335°
2026-04-27 03:15 -30.59473 114.76493 28764 ft 434 kts 335°
2026-04-27 03:15 -30.56675 114.75134 29006 ft 436 kts 335°
2026-04-27 03:15 -30.53862 114.73769 29256 ft 438 kts 335°
2026-04-27 03:16 -30.51080 114.72419 29516 ft 440 kts 335°
2026-04-27 03:16 -30.48246 114.71046 29766 ft 442 kts 335°
2026-04-27 03:16 -30.45400 114.69667 30018 ft 444 kts 335°
2026-04-27 03:16 -30.42543 114.68284 30263 ft 446 kts 335°
2026-04-27 03:17 -30.39677 114.66897 30506 ft 447 kts 335°
2026-04-27 03:17 -30.36797 114.65505 30765 ft 448 kts 335°
2026-04-27 03:17 -30.33918 114.64114 31015 ft 450 kts 335°
2026-04-27 03:17 -30.31016 114.62712 31263 ft 451 kts 335°
2026-04-27 03:18 -30.28120 114.61315 31511 ft 452 kts 335°
2026-04-27 03:18 -30.25207 114.59910 31742 ft 454 kts 335°
2026-04-27 03:18 -30.22286 114.58503 31977 ft 455 kts 334°
2026-04-27 03:18 -30.19362 114.57095 32196 ft 456 kts 334°
2026-04-27 03:19 -30.16422 114.55680 32417 ft 458 kts 334°
2026-04-27 03:19 -30.13478 114.54264 32627 ft 459 kts 334°
2026-04-27 03:19 -30.10522 114.52843 32830 ft 460 kts 334°
2026-04-27 03:19 -30.07557 114.51418 33075 ft 461 kts 334°
2026-04-27 03:20 -30.04600 114.50000 33388 ft 460 kts 334°
2026-04-27 03:20 -30.01676 114.48598 33709 ft 459 kts 334°
2026-04-27 03:20 -29.98730 114.47187 34023 ft 458 kts 334°
2026-04-27 03:20 -29.95798 114.45783 34305 ft 457 kts 334°
2026-04-27 03:21 -29.92865 114.44379 34576 ft 456 kts 334°
2026-04-27 03:21 -29.89926 114.42972 34854 ft 455 kts 334°
2026-04-27 03:21 -29.87008 114.41577 35129 ft 454 kts 334°
2026-04-27 03:21 -29.84090 114.40183 35419 ft 453 kts 334°
2026-04-27 03:22 -29.81180 114.38793 35702 ft 452 kts 334°
2026-04-27 03:22 -29.78278 114.37409 35982 ft 451 kts 334°
2026-04-27 03:22 -29.75376 114.36024 36264 ft 451 kts 334°
2026-04-27 03:22 -29.72478 114.34643 36543 ft 450 kts 334°
2026-04-27 03:23 -29.69582 114.33263 36827 ft 449 kts 334°
2026-04-27 03:23 -29.66697 114.31890 37116 ft 448 kts 334°
2026-04-27 03:23 -29.63824 114.30523 37427 ft 447 kts 334°
2026-04-27 03:23 -29.60946 114.29155 37718 ft 446 kts 334°
2026-04-27 03:24 -29.58115 114.27809 37982 ft 445 kts 334°
2026-04-27 03:24 -29.55256 114.26452 38272 ft 443 kts 334°
2026-04-27 03:24 -29.52406 114.25099 38563 ft 442 kts 333°
2026-04-27 03:24 -29.49559 114.23749 38805 ft 442 kts 333°
2026-04-27 03:25 -29.46721 114.22403 38960 ft 442 kts 333°
2026-04-27 03:25 -29.43873 114.21053 39104 ft 443 kts 333°
2026-04-27 03:25 -29.41018 114.19701 39249 ft 444 kts 333°
2026-04-27 03:25 -29.38165 114.18350 39406 ft 444 kts 333°
2026-04-27 03:26 -29.35306 114.16998 39558 ft 444 kts 333°
2026-04-27 03:26 -29.32450 114.15648 39704 ft 445 kts 333°
2026-04-27 03:26 -29.29581 114.14294 39849 ft 445 kts 333°
2026-04-27 03:26 -29.26718 114.12942 39962 ft 446 kts 333°
2026-04-27 03:27 -29.23848 114.11588 39996 ft 446 kts 333°
2026-04-27 03:27 -29.18153 114.08905 40000 ft 446 kts 333°
2026-04-27 03:28 -29.12404 114.06199 40000 ft 446 kts 333°
2026-04-27 03:28 -29.06661 114.03499 39997 ft 446 kts 333°
2026-04-27 03:29 -29.00908 114.00827 39998 ft 447 kts 334°
2026-04-27 03:29 -28.95093 113.98292 39994 ft 447 kts 334°
2026-04-27 03:30 -28.89301 113.95823 39998 ft 447 kts 334°
2026-04-27 03:30 -28.83466 113.93344 39996 ft 447 kts 335°
2026-04-27 03:31 -28.77633 113.90863 39996 ft 447 kts 335°
2026-04-27 03:31 -28.71802 113.88373 39996 ft 447 kts 334°
2026-04-27 03:32 -28.65977 113.85877 39992 ft 447 kts 334°
2026-04-27 03:32 -28.60152 113.83380 39992 ft 447 kts 334°
2026-04-27 03:33 -28.54326 113.80886 39993 ft 447 kts 334°
2026-04-27 03:33 -28.48546 113.78415 39989 ft 447 kts 334°
2026-04-27 03:34 -28.42725 113.75929 39986 ft 447 kts 334°
2026-04-27 03:34 -28.36903 113.73446 39986 ft 447 kts 334°
2026-04-27 03:35 -28.31082 113.70967 39983 ft 446 kts 334°
2026-04-27 03:35 -28.25262 113.68491 39984 ft 446 kts 334°
2026-04-27 03:36 -28.19445 113.66019 39979 ft 446 kts 334°
2026-04-27 03:36 -28.13637 113.63553 39979 ft 446 kts 334°
2026-04-27 03:37 -28.07865 113.61105 39977 ft 445 kts 334°
2026-04-27 03:37 -28.02056 113.58645 39975 ft 445 kts 334°
2026-04-27 03:38 -27.96260 113.56193 39976 ft 445 kts 334°
2026-04-27 03:38 -27.90495 113.53757 39975 ft 444 kts 334°
2026-04-27 03:39 -27.84704 113.51313 39971 ft 444 kts 334°
2026-04-27 03:39 -27.78913 113.48872 39967 ft 444 kts 334°
2026-04-27 03:40 -27.73125 113.46434 39981 ft 444 kts 334°
2026-04-27 03:40 -27.67332 113.43997 39973 ft 444 kts 334°